Location: Caltech
(34.1382°N, 118.1253°W)
Time: 11:22:18
(UTC-07:00)

Iridium 95 - Visible Passes

Search period start: 30 May 2015 00:00
Search period end: 09 June 2015 00:00
Orbit: 776 x 779 km, 86.4° (Epoch: 30 May)

Date Brightness Start Highest point End Pass type
(mag) Time Alt. Az. Time Alt. Az. Time Alt. Az.
30 May 6.8 00:23:24 36° NNE 00:23:24 36° NNE 00:26:32 10° N visible
30 May 8.1 02:03:52 10° WNW 02:03:52 10° WNW 02:03:57 10° WNW visible
30 May 7.2 23:49:52 26° NE 23:49:52 26° NE 23:52:37 10° NNE visible
31 May 7.6 01:30:20 19° NW 01:30:20 19° NW 01:32:42 10° NNW visible
31 May 7.6 23:16:21 15° ENE 23:16:21 15° ENE 23:18:05 10° NE visible
01 Jun 7.0 00:56:48 31° NW 00:56:48 31° NW 00:59:56 10° NNW visible
02 Jun 6.6 00:23:16 42° N 00:23:16 42° N 00:26:41 10° N visible
02 Jun 6.7 23:49:43 36° NE 23:49:43 36° NE 23:53:01 10° NNE visible
03 Jun 7.9 01:30:11 14° WNW 01:30:11 14° WNW 01:31:50 10° NW visible
03 Jun 7.2 23:16:09 23° ENE 23:16:09 23° ENE 23:18:54 10° NNE visible
04 Jun 7.3 00:56:37 25° NW 00:56:37 25° NW 00:59:39 10° NNW visible
04 Jun 7.7 22:42:36 13° ENE 22:42:36 13° ENE 22:43:52 10° NE visible
05 Jun 6.6 00:23:03 40° NW 00:23:03 40° NW 00:26:40 10° N visible
05 Jun 6.3 23:49:30 48° NNE 23:49:30 48° NNE 23:53:14 10° N visible
06 Jun 6.7 23:15:55 33° NE 23:15:55 33° NE 23:19:25 10° NNE visible
07 Jun 7.6 00:56:22 18° WNW 00:56:22 18° WNW 00:59:06 10° NW visible
07 Jun 7.3 22:42:19 19° ENE 22:42:19 19° ENE 22:45:03 10° NE visible
08 Jun 6.9 00:22:46 33° WNW 00:22:46 33° WNW 00:26:30 10° NNW visible
08 Jun 6.1 23:49:11 54° NNW 23:49:11 54° NNW 23:53:19 10° N visible
